[[{"header":{"parameterUnit":"m.s-1","parameterCategory":1,"la1":30.2991,"la2":30.254,"lo1":-89.0895,"lo2":-89.0444,"dy":0.0017,"dx":0.0017,"nx":28,"ny":28,"refTime":"2024-12-19T03:00:00:Z","depth":0,"parameterNumber":2,"parameterNumberName":"U-component_of_WINDS"},"data":[0,0,0,0,0,0,0,0,0,0,0,0,0,0,0,0,0,0,0,0,0,0,0,0,0,0,0,0,0,0,0,0,0,0,0,0,0,0,0,0,0,0,0,0,0,0,0,0,0,0,0,0,0,0,0,0,0,0,1.3458,1.3458,0,1.3428,1.3428,1.3427,1.3402,1.3402,1.3402,1.3402,1.3368,1.3367,1.3367,0,0,0,0,0,0,0,0,0,0,0,0,0,1.3494,1.3493,1.3458,1.3458,1.3458,1.3428,1.3428,1.3427,1.3402,1.3402,1.3402,1.3401,1.3368,1.3367,1.3367,0,0,0,0,0,0,0,0,0,0,0,0,0,1.3472,1.3493,1.3458,1.3442,1.344,1.3428,1.3428,1.3427,1.3402,1.3402,1.3402,1.3401,1.3368,1.3368,1.3367,1.3368,0,0,1.3364,1.3363,0,0,0,0,0,0,0,0,1.3474,1.3471,1.3445,1.3443,1.3441,1.3419,1.3428,1.3407,1.3403,1.3417,1.3402,1.3401,1.3385,1.3383,1.3378,1.3367,1.3365,1.3363,1.3363,1.3362,1.3362,0,0,0,0,0,0,0,1.3475,1.3472,1.3446,1.3444,1.3442,1.3435,1.3432,1.3424,1.3403,1.3415,1.3413,1.341,1.3384,1.3379,1.3377,1.3365,1.3363,1.3363,1.3362,1.3362,1.3355,1.3355,0,0,0,0,0,0,1.348,1.3474,1.3447,1.3445,1.3457,1.3435,1.3431,1.3426,1.3403,1.3399,1.3411,1.3409,1.3381,1.3378,1.3375,1.3376,1.3362,1.3362,1.3361,1.3354,1.3355,1.3355,0,0,0,0,0,0,1.348,1.3477,1.3448,1.3459,1.3455,1.3435,1.3429,1.3426,1.342,1.34,1.3396,1.3409,1.338,1.3377,1.3371,1.3375,1.3361,1.336,1.3354,1.3354,1.3355,1.3378,0,0,0,0,0,0,1.3481,1.3478,1.3478,1.3459,1.3454,1.3444,1.343,1.3425,1.3419,1.3417,1.3397,1.3394,1.338,1.3372,1.337,1.3373,1.3359,1.3353,1.3354,1.3355,1.3376,1.3379,1.3381,0,0,0,0,0,1.3483,1.3485,1.3478,1.3475,1.3455,1.3445,1.3442,1.3426,1.342,1.342,1.3407,1.3394,1.3375,1.3372,1.3369,1.3372,1.3353,1.3354,1.3355,1.3375,1.3379,1.3381,0,0,0,0,0,0,1.3504,1.3482,1.3475,1.3471,1.346,1.344,1.344,1.343,1.342,1.3418,1.3399,1.3394,1.339,1.3381,1.3377,1.3373,1.3362,1.3363,1.3379,1.3382,1.3384,1.3386,1.3359,0,0,0,0,0,1.3508,1.3502,1.3484,1.3482,1.3477,1.346,1.3455,1.3444,1.3432,1.3427,1.3413,1.3401,1.3392,1.3387,1.3377,1.3376,1.3371,1.3376,1.3379,1.3381,1.3381,1.338,1.3382,1.3358,1.3358,1.3358,0,0,1.3517,1.3504,1.3502,1.3486,1.3476,1.3471,1.3456,1.345,1.3446,1.3425,1.3419,1.3409,1.3394,1.339,1.3388,1.3382,1.3387,1.3382,1.3384,1.3383,1.3381,1.3384,1.3386,1.3359,1.3359,1.3358,0,0,1.3529,1.3519,1.3518,1.3509,1.3495,1.3483,1.3483,1.3466,1.3459,1.3452,1.3437,1.3432,1.3417,1.3407,1.34,1.3412,1.34,1.341,1.3422,1.3421,1.3423,1.3424,1.3429,1.3431,1.341,1.341,1.341,0,1.3541,1.3532,1.3518,1.3513,1.3507,1.349,1.3488,1.348,1.3464,1.346,1.3454,1.3436,1.3425,1.3419,1.3422,1.3417,1.3416,1.3411,1.3424,1.3425,1.3427,1.3431,1.3432,1.3411,1.3411,1.3411,1.3411,0,1.3548,1.3542,1.3543,1.3529,1.3523,1.3519,1.3504,1.35,1.349,1.348,1.3474,1.346,1.3449,1.3447,1.3436,1.344,1.3437,1.3428,1.3416,1.343,1.3434,1.3435,1.3413,1.3413,1.3412,1.3412,0,0,1.3571,1.3551,1.3551,1.3545,1.3529,1.3524,1.3521,1.351,1.3507,1.3497,1.3494,1.3483,1.3475,1.3467,1.3456,1.3456,1.3467,1.3447,1.3446,1.3451,1.347,1.3476,1.3478,1.3459,1.346,1.346,1.3471,0,1.3581,1.3574,1.3562,1.3559,1.3554,1.3539,1.3536,1.3526,1.3516,1.3511,1.35,1.3493,1.3483,1.3478,1.3477,1.3466,1.347,1.3465,1.3456,1.3455,1.3459,1.348,1.3486,1.3498,1.3472,1.3473,1.3473,0,1.3591,1.3583,1.358,1.3566,1.3563,1.3561,1.3551,1.3546,1.3535,1.3528,1.3521,1.351,1.3505,1.3496,1.349,1.3487,1.3483,1.3477,1.3477,1.3475,1.3464,1.3478,1.3501,1.3503,1.3475,1.3474,1.3474,0,1.3608,1.3596,1.3593,1.3589,1.3572,1.3571,1.3564,1.3553,1.3548,1.354,1.3537,1.3528,1.3522,1.3516,1.3502,1.3497,1.3498,1.3488,1.3492,1.3493,1.3492,1.3492,1.3514,1.3491,1.349,1.349,1.349,0,1.362,1.3618,1.3601,1.3599,1.3598,1.3584,1.3582,1.3574,1.3565,1.3561,1.3547,1.3544,1.3527,1.3522,1.3511,1.3508,1.3506,1.35,1.3497,1.3501,1.3502,1.3497,1.3496,1.3491,1.3491,1.3491,1.3491,0,1.3638,1.3626,1.3622,1.3608,1.3604,1.3604,1.3592,1.3589,1.358,1.3576,1.3574,1.3559,1.3552,1.3539,1.3528,1.3521,1.352,1.3516,1.3524,1.3522,1.3528,1.3528,1.3547,1.3549,1.3525,1.3525,1.3525,0,1.3645,1.3644,1.3631,1.3628,1.3622,1.3617,1.3613,1.3599,1.3595,1.3584,1.3583,1.3576,1.3569,1.3559,1.3547,1.3539,1.3534,1.3542,1.3533,1.3537,1.3534,1.3534,1.3534,1.3543,1.3544,1.3544,1.3544,0,1.3661,1.3656,1.365,1.3643,1.3638,1.3632,1.3625,1.3623,1.3608,1.3604,1.3598,1.3593,1.3583,1.3576,1.3567,1.356,1.3549,1.3548,1.3548,1.3551,1.3557,1.3554,1.3529,1.3547,1.3546,1.3546,1.3546,1.3546,1.3674,1.3672,1.3663,1.3658,1.3651,1.3646,1.3643,1.3634,1.3629,1.3621,1.3613,1.3608,1.3598,1.3585,1.3579,1.3575,1.3569,1.357,1.357,1.3571,1.3572,1.3558,1.3573,1.3573,1.3573,1.3573,1.3572,0,1.3688,1.3682,1.3677,1.3668,1.3665,1.3657,1.3649,1.3646,1.3642,1.3634,1.3629,1.3622,1.3616,1.3604,1.3597,1.3596,1.3591,1.3594,1.3594,1.3592,1.3577,1.3577,1.3598,1.3598,1.3598,1.3598,1.3598,1.3598,1.3695,1.3693,1.3687,1.3682,1.3676,1.3671,1.3667,1.3662,1.3656,1.365,1.3645,1.3638,1.3629,1.3621,1.3615,1.3612,1.361,1.3615,1.361,1.3596,1.3593,1.3591,1.3591,1.3615,1.3615,1.3626,1.3626,1.3626]},{"header":{"parameterUnit":"m.s-1","parameterCategory":1,"la1":30.2991,"la2":30.254,"lo1":-89.0895,"lo2":-89.0444,"dy":0.0017,"dx":0.0017,"nx":28,"ny":28,"refTime":"2024-12-19T03:00:00:Z","depth":0,"parameterNumber":3,"parameterNumberName":"V-component_of_WINDS"},"data":[0,0,0,0,0,0,0,0,0,0,0,0,0,0,0,0,0,0,0,0,0,0,0,0,0,0,0,0,0,0,0,0,0,0,0,0,0,0,0,0,0,0,0,0,0,0,0,0,0,0,0,0,0,0,0,0,0,0,-7.6724,-7.6726,0,-7.6857,-7.6858,-7.686,-7.6764,-7.6759,-7.6755,-7.6751,-7.6881,-7.6888,-7.6895,0,0,0,0,0,0,0,0,0,0,0,0,0,-7.6383,-7.639,-7.6724,-7.6726,-7.6728,-7.6857,-7.6859,-7.686,-7.6764,-7.6759,-7.6754,-7.6749,-7.6878,-7.6887,-7.6896,0,0,0,0,0,0,0,0,0,0,0,0,0,-7.6525,-7.6392,-7.6724,-7.6695,-7.6694,-7.6856,-7.6859,-7.6861,-7.6766,-7.6759,-7.6753,-7.6747,-7.6876,-7.6886,-7.6897,-7.7093,0,0,-7.6931,-7.6936,0,0,0,0,0,0,0,0,-7.6517,-7.6537,-7.6698,-7.6698,-7.6697,-7.6787,-7.6786,-7.6938,-7.6767,-7.6738,-7.6751,-7.6744,-7.6855,-7.6867,-7.6906,-7.7099,-7.7104,-7.6932,-7.6939,-7.6944,-7.6947,0,0,0,0,0,0,0,-7.6507,-7.6531,-7.6776,-7.67,-7.67,-7.6674,-7.6688,-7.6814,-7.683,-7.674,-7.6734,-7.6751,-7.6853,-7.6895,-7.6908,-7.7106,-7.6932,-7.6942,-7.6949,-7.6953,-7.7468,-7.7475,0,0,0,0,0,0,-7.6501,-7.6524,-7.6772,-7.678,-7.659,-7.6686,-7.67,-7.6765,-7.6829,-7.6832,-7.6756,-7.6746,-7.6879,-7.6895,-7.6912,-7.7147,-7.6944,-7.6954,-7.696,-7.7461,-7.747,-7.7477,0,0,0,0,0,0,-7.6494,-7.6524,-7.6767,-7.665,-7.6679,-7.6698,-7.6771,-7.6771,-7.6813,-7.6841,-7.6842,-7.6797,-7.6875,-7.6896,-7.7049,-7.715,-7.6959,-7.6969,-7.7453,-7.7464,-7.7474,-7.7616,0,0,0,0,0,0,-7.6484,-7.6522,-7.6597,-7.6653,-7.6686,-7.6904,-7.6777,-7.6778,-7.6833,-7.6821,-7.6879,-7.6883,-7.6872,-7.7033,-7.7061,-7.7161,-7.6978,-7.7444,-7.7458,-7.747,-7.7603,-7.763,-7.7654,0,0,0,0,0,-7.6473,-7.6631,-7.6602,-7.6632,-7.6781,-7.691,-7.6929,-7.6914,-7.6841,-7.6917,-7.6935,-7.6881,-7.7134,-7.705,-7.7079,-7.7185,-7.7438,-7.7454,-7.7469,-7.7591,-7.7625,-7.7654,0,0,0,0,0,0,-7.6583,-7.6637,-7.6606,-7.6787,-7.6845,-7.6893,-7.6988,-7.695,-7.7028,-7.7013,-7.699,-7.7004,-7.7165,-7.719,-7.7095,-7.7379,-7.7274,-7.7297,-7.7357,-7.7389,-7.7414,-7.7405,-7.6987,0,0,0,0,0,-7.663,-7.6732,-7.6772,-7.6928,-7.6959,-7.6969,-7.7024,-7.7009,-7.7067,-7.709,-7.7119,-7.7177,-7.7269,-7.733,-7.7416,-7.7606,-7.7617,-7.7693,-7.7719,-7.774,-7.776,-7.7863,-7.7897,-7.7529,-7.7529,-7.7529,0,0,-7.6725,-7.6767,-7.6832,-7.6951,-7.6994,-7.7099,-7.699,-7.7105,-7.7182,-7.7107,-7.7254,-7.7278,-7.734,-7.7513,-7.759,-7.7538,-7.7864,-7.776,-7.7777,-7.7785,-7.7883,-7.7918,-7.7949,-7.754,-7.7538,-7.7536,0,0,-7.6952,-7.6994,-7.7129,-7.7176,-7.7244,-7.725,-7.7282,-7.7338,-7.7351,-7.7499,-7.7446,-7.7536,-7.7696,-7.7743,-7.7787,-7.8036,-7.7989,-7.8064,-7.8198,-7.8299,-7.8328,-7.8354,-7.8443,-7.8476,-7.8084,-7.8084,-7.8084,0,-7.7061,-7.7219,-7.7203,-7.7324,-7.7378,-7.7317,-7.7454,-7.7498,-7.759,-7.7629,-7.757,-7.7771,-7.7808,-7.7991,-7.8052,-7.809,-7.8126,-7.8057,-7.8326,-7.8351,-7.8375,-7.846,-7.8493,-7.8093,-7.8092,-7.8091,-7.809,0,-7.735,-7.7461,-7.7561,-7.7655,-7.7721,-7.7848,-7.7851,-7.7919,-7.7898,-7.791,-7.8062,-7.8105,-7.82,-7.8242,-7.8221,-7.8423,-7.8389,-7.8329,-7.8223,-7.8419,-7.8499,-7.8531,-7.8105,-7.8102,-7.81,-7.8097,0,0,-7.765,-7.7735,-7.7773,-7.7815,-7.7887,-7.7971,-7.8096,-7.8192,-7.8251,-7.8316,-7.842,-7.8558,-7.8503,-7.8554,-7.8538,-7.8627,-7.8822,-7.8556,-7.8557,-7.8605,-7.9049,-7.9095,-7.9133,-7.8792,-7.8798,-7.8803,-7.9044,0,-7.7882,-7.8103,-7.8093,-7.8298,-7.8401,-7.8346,-7.8454,-7.8509,-7.8525,-7.8612,-7.8627,-7.8726,-7.8646,-7.8676,-7.8762,-7.8781,-7.8911,-7.8763,-7.8888,-7.8893,-7.8875,-7.9174,-7.9222,-7.9447,-7.9075,-7.908,-7.9084,0,-7.8181,-7.8261,-7.8478,-7.8537,-7.8579,-7.8677,-7.8765,-7.885,-7.8911,-7.8915,-7.8975,-7.8945,-7.907,-7.8962,-7.9135,-7.9034,-7.9085,-7.9102,-7.911,-7.9121,-7.9,-7.9194,-7.9519,-7.9553,-7.9132,-7.9128,-7.9125,0,-7.838,-7.8541,-7.8692,-7.873,-7.8801,-7.8872,-7.8905,-7.896,-7.9019,-7.9095,-7.9133,-7.9221,-7.927,-7.9339,-7.9334,-7.9255,-7.951,-7.94,-7.9516,-7.9517,-7.9572,-7.9569,-7.9911,-7.9604,-7.9604,-7.9603,-7.9602,0,-7.864,-7.8775,-7.8782,-7.8876,-7.9025,-7.9012,-7.916,-7.9185,-7.9235,-7.9331,-7.9288,-7.9378,-7.9366,-7.9457,-7.9453,-7.9597,-7.9619,-7.9626,-7.9623,-7.963,-7.963,-7.9663,-7.9648,-7.9612,-7.961,-7.9608,-7.9607,0,-7.8887,-7.8897,-7.9059,-7.9115,-7.9132,-7.924,-7.9286,-7.9374,-7.9386,-7.9508,-7.9536,-7.9555,-7.9659,-7.9662,-7.978,-7.9778,-7.9955,-7.9934,-7.9935,-7.9931,-8.0048,-8.0037,-8.0423,-8.0473,-8.0134,-8.0137,-8.014,0,-7.9053,-7.9156,-7.9224,-7.9287,-7.9325,-7.9426,-7.9487,-7.9478,-7.9542,-7.9622,-7.97,-7.9801,-7.9882,-8.0052,-8.0075,-8.0166,-8.0147,-8.0276,-8.016,-8.0165,-8.015,-8.0145,-8.0155,-8.0299,-8.0303,-8.0306,-8.0308,0,-7.9346,-7.9347,-7.9438,-7.9532,-7.9606,-7.9678,-7.9745,-7.9798,-7.9797,-7.9872,-7.998,-8.0043,-8.0167,-8.0268,-8.0357,-8.0388,-8.0349,-8.0345,-8.0377,-8.0385,-8.0382,-8.0386,-7.9998,-8.0336,-8.0333,-8.0331,-8.033,-8.0329,-7.9558,-7.9648,-7.9711,-7.9814,-7.9864,-7.9929,-8.0015,-8.0039,-8.013,-8.0232,-8.022,-8.0341,-8.04,-8.0516,-8.0556,-8.0649,-8.0604,-8.0649,-8.0661,-8.0673,-8.0686,-8.0368,-8.0665,-8.0664,-8.0663,-8.0662,-8.0662,0,-7.9851,-7.9889,-7.9984,-8.0081,-8.0162,-8.012,-8.0193,-8.0263,-8.037,-8.043,-8.0512,-8.0637,-8.0735,-8.0767,-8.0862,-8.0931,-8.0915,-8.0956,-8.0951,-8.0959,-8.072,-8.0684,-8.0968,-8.0967,-8.0967,-8.0967,-8.0967,-8.0967,-8.0012,-8.0163,-8.0172,-8.0347,-8.0383,-8.0504,-8.0549,-8.0608,-8.0656,-8.0798,-8.0881,-8.0902,-8.0951,-8.105,-8.1138,-8.1145,-8.1182,-8.1231,-8.123,-8.1007,-8.0976,-8.0947,-8.0912,-8.1239,-8.1239,-8.1461,-8.1463,-8.1465]}]]